JQ1YUX-13 Tokyo Ota-ku JP current weather conditions

sailwx.info

Wind from 019

Air temperature 13.3° C
Dewpoint 8.6° C

Last reported at 2017-Nov-23 09:59 UTC.
Time now 2017-Nov-23 10:50 UTC

Location: N 35°35' E 139°40'.
View on Google Maps.

See reports from other nearby stations

  
Tides and Currents Weather Stations Pressure Air Temp Water Temp Dewpoint Dewpoint Depression Visibility Wind Speed Wind Dir Waves Ship Positions
date/time (UTC)wind fromknots sea level pressurealtimeterstation pressurevisibilityair tempwater tempwave heightnotes
2017-Nov-23 09:59 019 13.3
2017-Nov-23 09:29 348 13.3
2017-Nov-23 08:59 348 13.3
2017-Nov-23 08:29 348 13.3
2017-Nov-23 07:59 348 13.9
2017-Nov-23 07:29 348 14.4
2017-Nov-23 06:59 348 15.0
2017-Nov-23 06:29 16.1
2017-Nov-23 05:59 15.6
2017-Nov-23 05:29 338 15.6
2017-Nov-23 05:18 338 15.0
2017-Nov-23 04:59 341 15.0
2017-Nov-23 04:48 040 14.4
2017-Nov-23 04:29 300 13.9
2017-Nov-23 03:59 345 11.7
2017-Nov-23 03:29 355 10.0
2017-Nov-23 02:59 355 9.4
2017-Nov-23 02:29 272 9.4
2017-Nov-23 01:59 028 8.9
2017-Nov-23 01:29 028 7.8
2017-Nov-23 00:59 346 7.8
2017-Nov-23 00:29 009 7.2
2017-Nov-22 23:59 7.2
2017-Nov-22 23:29 328 7.2
2017-Nov-22 22:59 355 6.7
2017-Nov-22 22:29 319 6.7
2017-Nov-22 22:18 322 7.2
2017-Nov-22 21:59 355 6.7
2017-Nov-22 21:29 355 6.7
2017-Nov-22 20:59 344 6.7
2017-Nov-22 20:29 346 6.7
2017-Nov-22 19:59 346 6.7
2017-Nov-22 19:29 355 6.1
2017-Nov-22 18:59 014 6.1
2017-Nov-22 18:29 315 6.1
2017-Nov-22 17:59 345 6.1
2017-Nov-22 17:29 355 6.1
2017-Nov-22 16:59 321 6.7
2017-Nov-22 16:29 265 6.7
2017-Nov-22 15:59 315 7.2
2017-Nov-22 15:29 317 7.2
2017-Nov-22 14:59 317 6.7
2017-Nov-22 14:29 317 6.7
2017-Nov-22 13:59 318 7.2
2017-Nov-22 13:29 319 7.2
2017-Nov-22 12:59 329 7.2
2017-Nov-22 12:29 032 7.2
2017-Nov-22 11:59 342 7.2
2017-Nov-22 11:29 311 7.2
2017-Nov-22 10:59 317 7.2
2017-Nov-22 10:29 355 7.8
2017-Nov-22 09:59 355 8.3
2017-Nov-22 09:29 334 8.3
2017-Nov-22 08:59 294 9.4
2017-Nov-22 08:29 328 10.6
2017-Nov-22 07:59 340 11.1
2017-Nov-22 07:29 11.1
2017-Nov-22 06:59 005 11.7
2017-Nov-22 06:29 12.2
2017-Nov-22 05:59 005 11.7
2017-Nov-22 05:48 005 11.7
2017-Nov-22 05:29 11.7
2017-Nov-22 04:59 009 11.7
2017-Nov-22 04:29 005 12.2
2017-Nov-22 04:18 009 11.7
2017-Nov-22 03:59 349 11.1
2017-Nov-22 03:29 030 10.6
2017-Nov-22 03:18 031 10.6
2017-Nov-22 02:59 012 10.6
2017-Nov-22 02:29 279 10.6
2017-Nov-22 01:59 9.4
2017-Nov-22 01:29 033 8.3
2017-Nov-22 00:59 304 7.8
2017-Nov-22 00:29 314 7.2
2017-Nov-21 23:29 302 6.1
2017-Nov-21 22:59 329 5.6
2017-Nov-21 22:29 343 4.4
2017-Nov-21 21:59 023 3.3
2017-Nov-21 21:29 023 3.3
2017-Nov-21 21:18 022 3.3
2017-Nov-21 20:59 023 3.3
2017-Nov-21 20:29 327 3.9
2017-Nov-21 20:18 327 3.9
2017-Nov-21 19:59 327 3.9
2017-Nov-21 19:29 327 3.9
2017-Nov-21 18:59 331 4.4
2017-Nov-21 18:29 317 3.9
2017-Nov-21 18:18 322 3.9
2017-Nov-21 17:59 323 4.4
2017-Nov-21 17:48 323 4.4
2017-Nov-21 17:29 329 4.4
2017-Nov-21 17:18 316 4.4
2017-Nov-21 16:59 005 4.4
2017-Nov-21 16:48 018 4.4
2017-Nov-21 16:29 030 4.4
2017-Nov-21 15:59 031 4.4
2017-Nov-21 15:48 030 4.4
2017-Nov-21 15:29 031 5.0
2017-Nov-21 15:18 031 5.0
2017-Nov-21 14:59 030 5.0
2017-Nov-21 14:29 045 5.6
2017-Nov-21 14:18 045 5.6
2017-Nov-21 13:59 045 5.6
2017-Nov-21 13:29 045 6.1
2017-Nov-21 12:59 045 6.7
2017-Nov-21 12:29 045 7.2
2017-Nov-21 11:59 045 7.8
2017-Nov-21 11:29 045 7.8
2017-Nov-21 10:59 045 8.3
2017-Nov-21 10:29 045 8.3